Cross City, FL

4:32 PM EDT on April 28, 2017 (GMT -0400)
Cross City

Weather History for KCTY - October, 2011

Change the Weather History Date:

Wednesday, October 19, 2011

  Actual Average Record
Temperature  
Mean Temperature 66 °F 69 °F  
Max Temperature 73 °F 82 °F 89 °F (2006)
Min Temperature 55 °F 57 °F 46 °F (2002)
Degree Days  
Heating Degree Days 0 1  
Month to date heating degree days 9  
Since 1 July heating degree days 9  
Cooling Degree Days 1 5  
Month to date cooling degree days 147  
Year to date cooling degree days 2489  
Growing Degree Days 16 (Base 50)    
Moisture  
Dew Point 60 °F    
Average Humidity 79    
Maximum Humidity 100    
Minimum Humidity 54    
Precipitation  
Precipitation 0.01 in 0.09 in 0.17 in (2007)
Month to date precipitation 2.34  
Year to date precipitation 42.17  
Sea Level Pressure  
Sea Level Pressure 29.64 in    
Wind  
Wind Speed 7 mph (West)    
Max Wind Speed 18 mph    
Max Gust Speed 29 mph    
T = Trace of Precipitation, MM = Missing Value Source: NWS Daily Summary

Daily Weather History Graph

Daily Weather History Graph

Search for Another Location

Airport or City:

Trip Planner

Search our weather history database for the weather conditions in past years. The results will help you decide how hot, cold, wet, or windy it might be!

Date:

Astronomy

Oct. 19, 2011 Rise Set
Actual Time 7:36 AM EDT 6:57 PM EDT
Civil Twilight 7:12 AM EDT 7:22 PM EDT
Nautical Twilight 6:44 AM EDT 7:49 PM EDT
Astronomical Twilight 6:16 AM EDT 8:17 PM EDT
Moon No Moon Rise 1:54 PM EDT (10/19)
Length of Visible Light 12h 09m
Length of Day
11h 21m
Waning Gibbous, 55% of the Moon is Illuminated
Oct 19
Waning Gibbous
Oct 19
Last Quarter
Oct 26
New
Nov 2
First Quarter
Nov 10
Full

Hourly Weather History & Observations

Time (EDT) Temp. Dew Point Humidity Pressure Visibility Wind Dir Wind Speed Gust Speed Precip Events Conditions
12:53 AM 73.0 °F 72.0 °F 96% 29.51 in - SSE 4.6 mph - 0.01 in   Unknown
1:53 AM 73.0 °F 73.0 °F 100% 29.49 in - Calm Calm - N/A   Unknown
2:53 AM 73.9 °F 73.0 °F 97% 29.49 in - Variable 5.8 mph - N/A   Unknown
3:53 AM 73.0 °F 73.0 °F 100% 29.48 in - NNW 4.6 mph - N/A   Unknown
4:53 AM 73.0 °F 73.0 °F 100% 29.50 in - WNW 4.6 mph - N/A   Unknown
5:53 AM 73.0 °F 72.0 °F 96% 29.51 in - West 4.6 mph - N/A   Unknown
6:53 AM 72.0 °F 71.1 °F 97% 29.52 in - West 3.5 mph - N/A   Unknown
7:53 AM 71.1 °F 70.0 °F 96% 29.54 in - SW 3.5 mph - N/A   Unknown
8:53 AM 73.0 °F 72.0 °F 96% 29.54 in - WSW 3.5 mph - N/A   Unknown
9:53 AM 71.6 °F 68.0 °F 88% 29.57 in - West 11.5 mph 20.7 mph N/A   Unknown
10:53 AM 69.1 °F 64.9 °F 87% 29.60 in - West 18.4 mph 27.6 mph N/A   Unknown
11:53 AM 66.0 °F 61.0 °F 84% 29.63 in - West 15.0 mph 26.5 mph N/A   Unknown
12:53 PM 64.0 °F 57.9 °F 80% 29.65 in - West 17.3 mph 28.8 mph N/A   Unknown
1:53 PM 63.0 °F 57.0 °F 81% 29.65 in - WNW 11.5 mph 20.7 mph N/A   Unknown
2:53 PM 66.0 °F 54.0 °F 65% 29.65 in - West 15.0 mph 25.3 mph N/A   Unknown
3:53 PM 66.0 °F 52.0 °F 60% 29.67 in - West 16.1 mph 21.9 mph N/A   Unknown
4:53 PM 66.9 °F 52.0 °F 59% 29.68 in - WNW 15.0 mph - N/A   Unknown
5:53 PM 66.0 °F 48.9 °F 54% 29.71 in - West 12.7 mph 19.6 mph N/A   Unknown
6:53 PM 63.0 °F 50.0 °F 63% 29.74 in - West 9.2 mph - N/A   Unknown
7:53 PM 62.1 °F 48.0 °F 60% 29.78 in - West 6.9 mph - N/A   Unknown
8:53 PM 62.1 °F 46.9 °F 58% 29.81 in - NW 6.9 mph - N/A   Unknown
9:53 PM 60.1 °F 46.0 °F 60% 29.83 in - WNW 6.9 mph - N/A   Unknown
10:53 PM 59.0 °F 45.0 °F 60% 29.85 in - NW 4.6 mph - N/A   Unknown
11:53 PM 55.9 °F 43.0 °F 62% 29.88 in - NW 9.2 mph - N/A   Unknown